Asheville, NC

6:29 PM EDT on September 23, 2017 (GMT -0400)
Asheville Regional

Weather History for KAVL - May, 2013

Change the Weather History Date:

Friday, May 24, 2013

  Actual Average Record
Temperature  
Mean Temperature 58 °F 65 °F  
Max Temperature 66 °F 77 °F 90 °F (1939)
Min Temperature 49 °F 54 °F 36 °F (1931)
Degree Days  
Heating Degree Days 7 2  
Month to date heating degree days 129 97  
Since 1 July heating degree days 4067 4169  
Cooling Degree Days 0 2  
Month to date cooling degree days 29 32  
Year to date cooling degree days 34 40  
Growing Degree Days 9 (Base 50)    
Moisture  
Dew Point 44 °F    
Average Humidity 60    
Maximum Humidity 86    
Minimum Humidity 34    
Precipitation  
Precipitation T in 0.11 in 2.28 in (1959)
Month to date precipitation 7.74 2.78  
Year to date precipitation 29.08 17.37  
Snow  
Snow 0.00 in 0.00 in 0.00 in ()
Month to date snowfall 0.0 0.0  
Since 1 July snowfall 0.5 9.9  
Snow Depth 0.00 in    
Sea Level Pressure  
Sea Level Pressure 30.07 in    
Wind  
Wind Speed 12 mph (North)    
Max Wind Speed 35 mph    
Max Gust Speed 40 mph    
Visibility 10 miles    
Events      
T = Trace of Precipitation, MM = Missing Value Source: NWS Daily Summary

Daily Weather History Graph

Daily Weather History Graph

Search for Another Location

Airport or City:

Trip Planner

Search our weather history database for the weather conditions in past years. The results will help you decide how hot, cold, wet, or windy it might be!

Date:

Astronomy

May. 24, 2013 Rise Set
Actual Time 6:19 AM EDT 8:34 PM EDT
Civil Twilight 5:50 AM EDT 9:03 PM EDT
Nautical Twilight 5:15 AM EDT 9:39 PM EDT
Astronomical Twilight 4:36 AM EDT 10:18 PM EDT
Moon 8:16 PM EDT (5/24) 5:48 AM EDT (5/24)
Length of Visible Light 15h 13m
Length of Day
14h 15m
Full, 100% of the Moon is Illuminated
May 24
Full
May 25
Full
May 31
Last Quarter
Jun 8
New
Jun 16
First Quarter

Hourly Weather History & Observations

Time (EDT) Temp. Dew Point Humidity Pressure Visibility Wind Dir Wind Speed Gust Speed Precip Events Conditions
12:54 AM 61.0 °F 51.1 °F 70% 29.94 in 10.0 mi North 10.4 mph - N/A   Overcast
1:54 AM 60.1 °F 51.1 °F 72% 29.94 in 10.0 mi NNE 3.5 mph - N/A   Scattered Clouds
2:54 AM 59.0 °F 50.0 °F 72% 29.91 in 10.0 mi North 11.5 mph - N/A   Scattered Clouds
3:54 AM 59.0 °F 50.0 °F 72% 29.90 in 10.0 mi NNW 17.3 mph 26.5 mph N/A   Clear
4:54 AM 57.9 °F 50.0 °F 75% 29.90 in 10.0 mi Variable 5.8 mph - N/A   Clear
5:54 AM 55.9 °F 52.0 °F 87% 29.95 in 10.0 mi NNW 16.1 mph - N/A   Clear
6:42 AM 57.2 °F 51.8 °F 82% 30.03 in 10.0 mi North 9.2 mph - 0.00 in   Overcast
6:54 AM 57.0 °F 52.0 °F 83% 29.97 in 10.0 mi North 9.2 mph - 0.00 in   Overcast
7:54 AM 57.9 °F 51.1 °F 78% 30.00 in 10.0 mi NNW 11.5 mph 18.4 mph N/A   Mostly Cloudy
8:54 AM 60.1 °F 48.9 °F 67% 30.01 in 10.0 mi NNW 15.0 mph 23.0 mph N/A   Mostly Cloudy
9:54 AM 60.1 °F 46.9 °F 62% 30.06 in 10.0 mi North 15.0 mph 25.3 mph N/A   Overcast
10:54 AM 61.0 °F 43.0 °F 52% 30.08 in 10.0 mi North 19.6 mph 33.4 mph N/A   Partly Cloudy
11:54 AM 61.0 °F 42.1 °F 50% 30.12 in 10.0 mi North 16.1 mph 28.8 mph N/A   Mostly Cloudy
12:54 PM 63.0 °F 39.9 °F 43% 30.12 in 10.0 mi North 19.6 mph 31.1 mph N/A   Clear
1:54 PM 64.0 °F 37.9 °F 38% 30.13 in 10.0 mi North 23.0 mph 32.2 mph N/A   Clear
2:54 PM 64.0 °F 37.9 °F 38% 30.13 in 10.0 mi North 17.3 mph 29.9 mph N/A   Clear
3:54 PM 64.0 °F 35.1 °F 34% 30.14 in 10.0 mi North 20.7 mph 31.1 mph N/A   Clear
4:54 PM 64.9 °F 37.9 °F 37% 30.14 in 10.0 mi North 13.8 mph 32.2 mph N/A   Clear
5:54 PM 64.9 °F 35.1 °F 33% 30.14 in 10.0 mi North 17.3 mph 26.5 mph N/A   Clear
6:54 PM 63.0 °F 36.0 °F 37% 30.15 in 10.0 mi North 13.8 mph 25.3 mph N/A   Clear
7:54 PM 61.0 °F 37.0 °F 41% 30.17 in 10.0 mi NNW 15.0 mph 19.6 mph N/A   Clear
8:54 PM 57.0 °F 37.9 °F 49% 30.18 in 10.0 mi NNW 8.1 mph - N/A   Clear
9:54 PM 55.0 °F 37.9 °F 53% 30.20 in 10.0 mi Calm Calm - N/A   Clear
10:54 PM 52.0 °F 39.9 °F 63% 30.22 in 10.0 mi Calm Calm - N/A   Clear
11:54 PM 51.1 °F 39.9 °F 66% 30.24 in 10.0 mi Calm Calm - N/A   Clear